Time,TemperatureF,DewpointF,PressureIn,WindDirection,WindDirectionDegrees,WindSpeedMPH,WindSpeedGustMPH,Humidity,HourlyPrecipIn,Conditions,Clouds,dailyrainin,SoftwareType,DateUTC
2013-04-23 05:03:00,32.7,23.7,30.00,North,-999,0.0,0.0,69,0.00,,,-99.99,FreeWX 2.04,2013-04-23 09:03:00,
2013-04-23 06:41:00,33.8,26.1,29.94,North,-999,0.0,0.0,73,0.00,,,-99.99,FreeWX 2.04,2013-04-23 10:41:00,
2013-04-23 06:46:00,34.2,26.4,29.94,North,-999,0.0,0.0,73,0.00,,,-99.99,FreeWX 2.04,2013-04-23 10:46:00,
2013-04-23 06:51:00,34.5,26.8,29.94,North,-999,0.0,0.0,73,0.00,,,-99.99,FreeWX 2.04,2013-04-23 10:51:00,
2013-04-23 06:56:00,34.9,27.1,29.94,North,-999,0.0,0.0,73,0.00,,,-99.99,FreeWX 2.04,2013-04-23 10:56:00,
2013-04-23 07:01:00,35.2,27.9,29.94,North,-999,0.0,0.0,74,0.00,,,-99.99,FreeWX 2.04,2013-04-23 11:01:00,
2013-04-23 07:06:00,35.6,28.2,29.94,North,-999,0.0,0.0,74,0.00,,,-99.99,FreeWX 2.04,2013-04-23 11:06:00,
2013-04-23 07:11:00,35.8,28.4,29.94,North,-999,0.0,0.0,74,0.00,,,-99.99,FreeWX 2.04,2013-04-23 11:11:00,
2013-04-23 07:16:00,35.8,28.4,29.94,North,-999,0.0,0.0,74,0.00,,,-99.99,FreeWX 2.04,2013-04-23 11:16:00,
2013-04-23 07:21:00,36.0,28.6,29.94,North,-999,0.0,0.0,74,0.00,,,-99.99,FreeWX 2.04,2013-04-23 11:21:00,
2013-04-23 07:26:00,36.3,28.8,29.94,North,-999,0.0,0.0,74,0.00,,,-99.99,FreeWX 2.04,2013-04-23 11:26:00,
2013-04-23 07:31:00,36.7,29.1,29.94,North,-999,0.0,0.0,74,0.00,,,-99.99,FreeWX 2.04,2013-04-23 11:31:00,
2013-04-23 07:36:00,37.0,29.5,29.94,North,-999,0.0,0.0,74,0.00,,,-99.99,FreeWX 2.04,2013-04-23 11:36:00,
2013-04-23 07:41:00,37.8,30.6,29.94,North,-999,0.0,0.0,75,0.00,,,-99.99,FreeWX 2.04,2013-04-23 11:41:00,
2013-04-23 07:46:00,38.3,31.1,29.94,North,-999,0.0,0.0,75,0.00,,,-99.99,FreeWX 2.04,2013-04-23 11:46:00,
2013-04-23 07:51:00,38.8,31.6,29.94,North,-999,0.0,0.0,75,0.00,,,-99.99,FreeWX 2.04,2013-04-23 11:51:00,
2013-04-23 07:56:00,39.4,32.2,29.94,North,-999,0.0,0.0,75,0.00,,,-99.99,FreeWX 2.04,2013-04-23 11:56:00,
2013-04-23 08:01:00,39.9,32.9,29.94,North,-999,0.0,0.0,76,0.00,,,-99.99,FreeWX 2.04,2013-04-23 12:01:00,
2013-04-23 08:06:00,40.3,33.1,29.94,North,-999,0.0,0.0,75,0.00,,,-99.99,FreeWX 2.04,2013-04-23 12:06:00,
2013-04-23 08:11:00,40.6,33.3,29.94,North,-999,0.0,0.0,75,0.00,,,-99.99,FreeWX 2.04,2013-04-23 12:11:00,
2013-04-23 08:16:00,41.4,34.0,29.94,North,-999,0.0,0.0,75,0.00,,,-99.99,FreeWX 2.04,2013-04-23 12:16:00,
2013-04-23 08:21:00,42.1,34.7,29.94,North,-999,0.0,0.0,75,0.00,,,-99.99,FreeWX 2.04,2013-04-23 12:21:00,
2013-04-23 08:26:00,43.3,36.3,29.94,North,-999,0.0,0.0,76,0.00,,,-99.99,FreeWX 2.04,2013-04-23 12:26:00,
2013-04-23 08:31:00,44.4,37.6,29.94,North,-999,0.0,3.1,77,0.00,,,-99.99,FreeWX 2.04,2013-04-23 12:31:00,
2013-04-23 08:36:00,45.5,38.7,29.94,North,-999,0.0,2.7,77,0.00,,,-99.99,FreeWX 2.04,2013-04-23 12:36:00,
2013-04-23 08:41:00,46.0,39.2,29.94,North,-999,0.0,0.0,77,0.00,,,-99.99,FreeWX 2.04,2013-04-23 12:41:00,
2013-04-23 08:46:00,46.2,39.4,29.94,North,-999,0.0,0.0,77,0.00,,,-99.99,FreeWX 2.04,2013-04-23 12:46:00,
2013-04-23 08:51:00,46.2,39.0,29.91,North,-999,0.0,0.0,76,0.00,,,-99.99,FreeWX 2.04,2013-04-23 12:51:00,
2013-04-23 08:56:00,46.4,39.2,29.91,North,-999,0.0,0.0,76,0.00,,,-99.99,FreeWX 2.04,2013-04-23 12:56:00,
2013-04-23 09:01:00,46.6,39.4,29.91,North,-999,0.0,4.0,76,0.00,,,-99.99,FreeWX 2.04,2013-04-23 13:01:00,
2013-04-23 09:06:00,47.3,40.1,29.91,North,-999,0.0,3.1,76,0.00,,,-99.99,FreeWX 2.04,2013-04-23 13:06:00,
2013-04-23 09:11:00,48.6,42.1,29.91,North,-999,0.0,0.0,78,0.00,,,-99.99,FreeWX 2.04,2013-04-23 13:11:00,
2013-04-23 09:16:00,48.9,42.4,29.91,North,-999,0.0,4.5,78,0.00,,,-99.99,FreeWX 2.04,2013-04-23 13:16:00,
2013-04-23 09:21:00,49.6,42.8,29.91,North,-999,0.0,0.0,77,0.00,,,-99.99,FreeWX 2.04,2013-04-23 13:21:00,
2013-04-23 09:26:00,50.2,43.3,29.91,North,-999,0.0,5.4,77,0.00,,,-99.99,FreeWX 2.04,2013-04-23 13:26:00,
2013-04-23 09:31:00,50.2,42.6,29.91,South,185,1.0,4.5,75,0.00,,,-99.99,FreeWX 2.04,2013-04-23 13:31:00,
2013-04-23 09:36:00,50.2,41.9,29.91,South,178,1.0,4.9,73,0.00,,,-99.99,FreeWX 2.04,2013-04-23 13:36:00,
2013-04-23 09:41:00,50.7,41.7,29.91,SSE,167,1.0,5.4,71,0.00,,,-99.99,FreeWX 2.04,2013-04-23 13:41:00,
2013-04-23 09:46:00,51.3,40.6,29.91,SSE,165,1.0,8.3,67,0.00,,,-99.99,FreeWX 2.04,2013-04-23 13:46:00,
2013-04-23 09:51:00,52.7,42.1,29.94,South,178,1.0,3.6,67,0.00,,,-99.99,FreeWX 2.04,2013-04-23 13:51:00,
2013-04-23 09:56:00,54.7,42.3,29.94,South,187,1.0,5.8,63,0.00,,,-99.99,FreeWX 2.04,2013-04-23 13:56:00,
2013-04-23 10:01:00,56.3,40.8,29.94,SSW,196,1.0,4.0,56,0.00,,,-99.99,FreeWX 2.04,2013-04-23 14:01:00,
2013-04-23 10:06:00,57.2,37.8,29.91,SSW,197,1.0,5.8,48,0.00,,,-99.99,FreeWX 2.04,2013-04-23 14:06:00,
2013-04-23 10:11:00,57.4,32.0,29.91,SSW,195,1.0,4.5,38,0.00,,,-99.99,FreeWX 2.04,2013-04-23 14:11:00,
2013-04-23 10:16:00,57.7,30.2,29.91,South,190,1.0,6.9,35,0.00,,,-99.99,FreeWX 2.04,2013-04-23 14:16:00,
2013-04-23 10:21:00,57.7,28.0,29.91,SSW,192,1.0,4.9,32,0.00,,,-99.99,FreeWX 2.04,2013-04-23 14:21:00,
2013-04-23 10:26:00,57.4,27.0,29.91,SSW,205,1.0,4.5,31,0.00,,,-99.99,FreeWX 2.04,2013-04-23 14:26:00,
2013-04-23 10:31:00,57.4,24.6,29.91,South,191,2.0,6.7,28,0.00,,,-99.99,FreeWX 2.04,2013-04-23 14:31:00,
2013-04-23 10:36:00,57.6,23.9,29.91,South,181,2.0,6.3,27,0.00,,,-99.99,FreeWX 2.04,2013-04-23 14:36:00,
2013-04-23 10:41:00,58.5,22.8,29.91,South,183,2.0,6.3,25,0.00,,,-99.99,FreeWX 2.04,2013-04-23 14:41:00,
2013-04-23 10:46:00,58.8,23.0,29.91,South,182,2.0,5.4,25,0.00,,,-99.99,FreeWX 2.04,2013-04-23 14:46:00,
2013-04-23 10:51:00,59.4,23.5,29.88,South,179,2.0,7.4,25,0.00,,,-99.99,FreeWX 2.04,2013-04-23 14:51:00,
2013-04-23 10:56:00,59.7,22.8,29.88,South,172,3.0,5.8,24,0.00,,,-99.99,FreeWX 2.04,2013-04-23 14:56:00,
2013-04-23 11:01:00,61.0,23.9,29.88,South,177,2.0,5.4,24,0.00,,,-99.99,FreeWX 2.04,2013-04-23 15:01:00,
2013-04-23 11:06:00,61.3,24.3,29.88,South,181,2.0,5.8,24,0.00,,,-99.99,FreeWX 2.04,2013-04-23 15:06:00,
2013-04-23 11:11:00,60.3,20.1,29.88,South,176,2.0,5.8,21,0.00,,,-99.99,FreeWX 2.04,2013-04-23 15:11:00,
2013-04-23 11:16:00,60.1,23.2,29.88,South,175,1.0,4.5,24,0.00,,,-99.99,FreeWX 2.04,2013-04-23 15:16:00,
2013-04-23 11:21:00,59.7,22.8,29.88,South,178,1.0,5.8,24,0.00,,,-99.99,FreeWX 2.04,2013-04-23 15:21:00,
2013-04-23 11:26:00,60.6,23.7,29.88,South,185,1.0,4.5,24,0.00,,,-99.99,FreeWX 2.04,2013-04-23 15:26:00,
2013-04-23 11:31:00,62.6,22.1,29.88,South,182,2.0,5.4,21,0.00,,,-99.99,FreeWX 2.04,2013-04-23 15:31:00,
2013-04-23 11:36:00,63.1,22.6,29.88,South,172,2.0,5.4,21,0.00,,,-99.99,FreeWX 2.04,2013-04-23 15:36:00,
2013-04-23 11:41:00,62.4,21.9,29.88,South,172,3.0,5.8,21,0.00,,,-99.99,FreeWX 2.04,2013-04-23 15:41:00,
2013-04-23 11:46:00,60.6,18.1,29.88,South,178,2.0,6.3,19,0.00,,,-99.99,FreeWX 2.04,2013-04-23 15:46:00,
2013-04-23 11:51:00,59.5,20.7,29.88,South,183,2.0,6.3,22,0.00,,,-99.99,FreeWX 2.04,2013-04-23 15:51:00,
2013-04-23 11:56:00,58.1,19.4,29.88,South,177,1.0,4.5,22,0.00,,,-99.99,FreeWX 2.04,2013-04-23 15:56:00,
2013-04-23 12:01:00,56.8,18.3,29.88,South,178,1.0,4.5,22,0.00,,,-99.99,FreeWX 2.04,2013-04-23 16:01:00,
2013-04-23 12:06:00,56.5,20.1,29.88,North,-999,0.0,0.0,24,0.00,,,-99.99,FreeWX 2.04,2013-04-23 16:06:00,
2013-04-23 12:11:00,56.7,21.2,29.88,North,-999,0.0,4.0,25,0.00,,,-99.99,FreeWX 2.04,2013-04-23 16:11:00,
2013-04-23 12:16:00,56.1,20.8,29.88,North,-999,0.0,4.9,25,0.00,,,-99.99,FreeWX 2.04,2013-04-23 16:16:00,
2013-04-23 12:21:00,54.7,19.6,29.88,North,-999,0.0,3.6,25,0.00,,,-99.99,FreeWX 2.04,2013-04-23 16:21:00,
2013-04-23 12:26:00,53.8,19.8,29.88,North,-999,0.0,4.0,26,0.00,,,-99.99,FreeWX 2.04,2013-04-23 16:26:00,
2013-04-23 12:31:00,53.1,19.9,29.88,North,-999,0.0,5.8,27,0.00,,,-99.99,FreeWX 2.04,2013-04-23 16:31:00,
2013-04-23 12:36:00,53.6,21.4,29.88,North,-999,0.0,0.0,28,0.00,,,-99.99,FreeWX 2.04,2013-04-23 16:36:00,
2013-04-23 12:41:00,53.8,22.3,29.88,North,-999,0.0,0.0,29,0.00,,,-99.99,FreeWX 2.04,2013-04-23 16:41:00,
2013-04-23 12:46:00,53.4,21.9,29.88,North,-999,0.0,4.5,29,0.00,,,-99.99,FreeWX 2.04,2013-04-23 16:46:00,
2013-04-23 12:51:00,52.7,22.1,29.88,North,-999,0.0,2.7,30,0.00,,,-99.99,FreeWX 2.04,2013-04-23 16:51:00,
2013-04-23 12:56:00,51.6,21.2,29.88,North,-999,0.0,3.6,30,0.00,,,-99.99,FreeWX 2.04,2013-04-23 16:56:00,
2013-04-23 13:01:00,51.1,22.3,29.88,North,-999,0.0,3.1,32,0.00,,,-99.99,FreeWX 2.04,2013-04-23 17:01:00,
2013-04-23 13:06:00,50.7,23.4,29.85,North,-999,0.0,3.1,34,0.00,,,-99.99,FreeWX 2.04,2013-04-23 17:06:00,
2013-04-23 13:11:00,50.4,24.4,29.85,North,-999,0.0,0.0,36,0.00,,,-99.99,FreeWX 2.04,2013-04-23 17:11:00,
2013-04-23 13:16:00,50.7,25.3,29.85,North,-999,0.0,0.0,37,0.00,,,-99.99,FreeWX 2.04,2013-04-23 17:16:00,
2013-04-23 13:21:00,51.8,27.0,29.85,North,-999,0.0,0.0,38,0.00,,,-99.99,FreeWX 2.04,2013-04-23 17:21:00,
2013-04-23 13:26:00,51.8,26.4,29.85,North,-999,0.0,0.0,37,0.00,,,-99.99,FreeWX 2.04,2013-04-23 17:26:00,
2013-04-23 13:31:00,50.9,25.5,29.85,North,-999,0.0,0.0,37,0.00,,,-99.99,FreeWX 2.04,2013-04-23 17:31:00,
2013-04-23 13:36:00,50.2,25.5,29.85,North,-999,0.0,4.0,38,0.00,,,-99.99,FreeWX 2.04,2013-04-23 17:36:00,
2013-04-23 13:41:00,49.6,25.2,29.85,North,-999,0.0,0.0,38,0.00,,,-99.99,FreeWX 2.04,2013-04-23 17:41:00,
2013-04-23 13:46:00,49.6,25.7,29.85,North,-999,0.0,0.0,39,0.00,,,-99.99,FreeWX 2.04,2013-04-23 17:46:00,
2013-04-23 13:51:00,49.8,26.4,29.82,North,-999,0.0,0.0,40,0.00,,,-99.99,FreeWX 2.04,2013-04-23 17:51:00,
2013-04-23 13:56:00,50.2,27.3,29.82,North,-999,0.0,0.0,41,0.00,,,-99.99,FreeWX 2.04,2013-04-23 17:56:00,
2013-04-23 14:01:00,50.9,28.0,29.82,North,-999,0.0,3.1,41,0.00,,,-99.99,FreeWX 2.04,2013-04-23 18:01:00,
2013-04-23 14:06:00,50.9,27.5,29.82,North,-999,0.0,0.0,40,0.00,,,-99.99,FreeWX 2.04,2013-04-23 18:06:00,
2013-04-23 14:11:00,50.5,27.1,29.82,North,-999,0.0,0.0,40,0.00,,,-99.99,FreeWX 2.04,2013-04-23 18:11:00,
2013-04-23 14:16:00,50.5,27.7,29.82,North,-999,0.0,0.0,41,0.00,,,-99.99,FreeWX 2.04,2013-04-23 18:16:00,
2013-04-23 14:21:00,51.4,29.1,29.82,North,-999,0.0,0.0,42,0.00,,,-99.99,FreeWX 2.04,2013-04-23 18:21:00,
2013-04-23 14:26:00,52.5,30.7,29.82,North,-999,0.0,0.0,43,0.00,,,-99.99,FreeWX 2.04,2013-04-23 18:26:00,
2013-04-23 14:31:00,53.1,30.6,29.82,North,-999,0.0,2.7,42,0.00,,,-99.99,FreeWX 2.04,2013-04-23 18:31:00,
2013-04-23 14:36:00,53.8,31.3,29.82,North,-999,0.0,2.7,42,0.00,,,-99.99,FreeWX 2.04,2013-04-23 18:36:00,
2013-04-23 14:41:00,54.0,30.7,29.82,North,-999,0.0,0.0,41,0.00,,,-99.99,FreeWX 2.04,2013-04-23 18:41:00,
2013-04-23 14:46:00,54.0,30.2,29.82,North,-999,0.0,0.0,40,0.00,,,-99.99,FreeWX 2.04,2013-04-23 18:46:00,
2013-04-23 14:51:00,54.0,30.2,29.82,North,-999,0.0,4.0,40,0.00,,,-99.99,FreeWX 2.04,2013-04-23 18:51:00,
2013-04-23 14:56:00,54.7,31.5,29.82,North,-999,0.0,3.1,41,0.00,,,-99.99,FreeWX 2.04,2013-04-23 18:56:00,
2013-04-23 15:01:00,55.4,31.5,29.82,North,-999,0.0,3.1,40,0.00,,,-99.99,FreeWX 2.04,2013-04-23 19:01:00,
2013-04-23 15:06:00,55.8,31.8,29.79,North,-999,0.0,4.5,40,0.00,,,-99.99,FreeWX 2.04,2013-04-23 19:06:00,
2013-04-23 15:12:00,55.4,30.2,29.79,North,-999,0.0,3.6,38,0.00,,,-99.99,FreeWX 2.04,2013-04-23 19:12:00,
2013-04-23 15:17:00,55.6,31.1,29.79,North,-999,0.0,0.0,39,0.00,,,-99.99,FreeWX 2.04,2013-04-23 19:17:00,
2013-04-23 15:22:00,55.8,30.6,29.79,North,-999,0.0,3.1,38,0.00,,,-99.99,FreeWX 2.04,2013-04-23 19:22:00,
2013-04-23 15:27:00,55.8,30.6,29.79,North,-999,0.0,3.6,38,0.00,,,-99.99,FreeWX 2.04,2013-04-23 19:27:00,
2013-04-23 15:32:00,55.9,30.7,29.79,North,-999,0.0,0.0,38,0.00,,,-99.99,FreeWX 2.04,2013-04-23 19:32:00,
2013-04-23 15:37:00,55.9,29.3,29.79,North,-999,0.0,4.9,36,0.00,,,-99.99,FreeWX 2.04,2013-04-23 19:37:00,
2013-04-23 15:42:00,55.6,29.1,29.79,SSE,164,1.0,3.6,36,0.00,,,-99.99,FreeWX 2.04,2013-04-23 19:42:00,
2013-04-23 15:47:00,55.2,28.0,29.79,North,-999,0.0,4.5,35,0.00,,,-99.99,FreeWX 2.04,2013-04-23 19:47:00,
2013-04-23 15:52:00,54.3,27.3,29.79,North,-999,0.0,4.0,35,0.00,,,-99.99,FreeWX 2.04,2013-04-23 19:52:00,
2013-04-23 15:57:00,54.0,27.7,29.79,North,-999,0.0,0.0,36,0.00,,,-99.99,FreeWX 2.04,2013-04-23 19:57:00,
2013-04-23 16:02:00,54.3,27.9,29.79,North,-999,0.0,2.7,36,0.00,,,-99.99,FreeWX 2.04,2013-04-23 20:02:00,
2013-04-23 16:07:00,54.7,28.2,29.76,North,-999,0.0,0.0,36,0.00,,,-99.99,FreeWX 2.04,2013-04-23 20:07:00,
2013-04-23 16:12:00,54.1,27.1,29.76,North,-999,0.0,4.9,35,0.00,,,-99.99,FreeWX 2.04,2013-04-23 20:12:00,
2013-04-23 16:17:00,54.0,27.7,29.76,North,-999,0.0,3.1,36,0.00,,,-99.99,FreeWX 2.04,2013-04-23 20:17:00,
2013-04-23 16:22:00,53.6,27.3,29.76,North,-999,0.0,4.0,36,0.00,,,-99.99,FreeWX 2.04,2013-04-23 20:22:00,
2013-04-23 16:27:00,53.1,26.8,29.76,North,-999,0.0,0.0,36,0.00,,,-99.99,FreeWX 2.04,2013-04-23 20:27:00,
2013-04-23 16:32:00,52.5,26.4,29.76,North,-999,0.0,0.0,36,0.00,,,-99.99,FreeWX 2.04,2013-04-23 20:32:00,
2013-04-23 16:37:00,52.5,26.4,29.76,North,-999,0.0,0.0,36,0.00,,,-99.99,FreeWX 2.04,2013-04-23 20:37:00,
2013-04-23 16:42:00,52.0,25.9,29.76,North,-999,0.0,0.0,36,0.00,,,-99.99,FreeWX 2.04,2013-04-23 20:42:00,
2013-04-23 16:47:00,51.4,25.3,29.76,North,-999,0.0,3.6,36,0.00,,,-99.99,FreeWX 2.04,2013-04-23 20:47:00,
2013-04-23 16:52:00,50.9,25.5,29.76,North,-999,0.0,0.0,37,0.00,,,-99.99,FreeWX 2.04,2013-04-23 20:52:00,
2013-04-23 16:57:00,50.9,25.5,29.76,North,-999,0.0,0.0,37,0.00,,,-99.99,FreeWX 2.04,2013-04-23 20:57:00,
2013-04-23 17:02:00,50.9,26.2,29.76,North,-999,0.0,0.0,38,0.00,,,-99.99,FreeWX 2.04,2013-04-23 21:02:00,
2013-04-23 17:07:00,50.5,26.6,29.76,North,-999,0.0,0.0,39,0.00,,,-99.99,FreeWX 2.04,2013-04-23 21:07:00,
2013-04-23 17:12:00,50.2,26.8,29.76,North,-999,0.0,0.0,40,0.00,,,-99.99,FreeWX 2.04,2013-04-23 21:12:00,
2013-04-23 17:17:00,50.4,28.2,29.76,North,-999,0.0,0.0,42,0.00,,,-99.99,FreeWX 2.04,2013-04-23 21:17:00,
2013-04-23 17:22:00,50.7,29.7,29.76,North,-999,0.0,0.0,44,0.00,,,-99.99,FreeWX 2.04,2013-04-23 21:22:00,
2013-04-23 17:27:00,51.1,30.0,29.76,North,-999,0.0,0.0,44,0.00,,,-99.99,FreeWX 2.04,2013-04-23 21:27:00,
2013-04-23 17:32:00,50.9,29.8,29.76,North,-999,0.0,0.0,44,0.00,,,-99.99,FreeWX 2.04,2013-04-23 21:32:00,
2013-04-23 17:37:00,50.4,29.8,29.76,North,-999,0.0,0.0,45,0.00,,,-99.99,FreeWX 2.04,2013-04-23 21:37:00,
2013-04-23 17:42:00,49.8,29.3,29.76,North,-999,0.0,0.0,45,0.00,,,-99.99,FreeWX 2.04,2013-04-23 21:42:00,
2013-04-23 17:47:00,49.5,29.5,29.76,North,-999,0.0,0.0,46,0.00,,,-99.99,FreeWX 2.04,2013-04-23 21:47:00,
2013-04-23 17:52:00,49.5,30.0,29.76,North,-999,0.0,0.0,47,0.04,,,-99.99,FreeWX 2.04,2013-04-23 21:52:00,
2013-04-23 17:57:00,49.8,30.9,29.76,North,-999,0.0,0.0,48,0.04,,,-99.99,FreeWX 2.04,2013-04-23 21:57:00,
2013-04-23 18:02:00,50.5,32.2,29.76,North,-999,0.0,0.0,49,0.04,,,-99.99,FreeWX 2.04,2013-04-23 22:02:00,
2013-04-23 18:07:00,50.9,32.4,29.74,North,-999,0.0,0.0,49,0.04,,,-99.99,FreeWX 2.04,2013-04-23 22:07:00,
2013-04-23 18:12:00,51.4,33.4,29.74,North,-999,0.0,0.0,50,0.04,,,-99.99,FreeWX 2.04,2013-04-23 22:12:00,
2013-04-23 18:17:00,51.6,33.6,29.74,North,-999,0.0,0.0,50,0.04,,,-99.99,FreeWX 2.04,2013-04-23 22:17:00,
2013-04-23 18:22:00,52.2,34.5,29.74,North,-999,0.0,0.0,51,0.04,,,-99.99,FreeWX 2.04,2013-04-23 22:22:00,
2013-04-23 18:27:00,52.5,35.4,29.74,North,-999,0.0,0.0,52,0.04,,,-99.99,FreeWX 2.04,2013-04-23 22:27:00,
2013-04-23 18:32:00,52.5,36.0,29.74,North,-999,0.0,0.0,53,0.04,,,-99.99,FreeWX 2.04,2013-04-23 22:32:00,
2013-04-23 18:37:00,52.2,36.0,29.74,North,-999,0.0,0.0,54,0.04,,,-99.99,FreeWX 2.04,2013-04-23 22:37:00,
2013-04-23 18:42:00,52.0,36.3,29.74,North,-999,0.0,0.0,55,0.04,,,-99.99,FreeWX 2.04,2013-04-23 22:42:00,
2013-04-23 18:47:00,52.0,36.9,29.74,North,-999,0.0,0.0,56,0.04,,,-99.99,FreeWX 2.04,2013-04-23 22:47:00,
2013-04-23 18:52:00,51.8,36.7,29.74,North,-999,0.0,0.0,56,0.00,,,-99.99,FreeWX 2.04,2013-04-23 22:52:00,
2013-04-23 18:57:00,51.8,37.0,29.74,North,-999,0.0,0.0,57,0.00,,,-99.99,FreeWX 2.04,2013-04-23 22:57:00,
2013-04-23 19:02:00,51.8,37.6,29.74,North,-999,0.0,0.0,58,0.00,,,-99.99,FreeWX 2.04,2013-04-23 23:02:00,
2013-04-23 19:07:00,51.8,37.6,29.74,North,-999,0.0,0.0,58,0.00,,,-99.99,FreeWX 2.04,2013-04-23 23:07:00,
2013-04-23 19:12:00,51.6,37.8,29.74,North,-999,0.0,0.0,59,0.00,,,-99.99,FreeWX 2.04,2013-04-23 23:12:00,
2013-04-23 19:17:00,51.4,37.6,29.74,North,-999,0.0,0.0,59,0.04,,,-99.99,FreeWX 2.04,2013-04-23 23:17:00,
2013-04-23 19:22:00,51.4,37.6,29.74,North,-999,0.0,0.0,59,0.04,,,-99.99,FreeWX 2.04,2013-04-23 23:22:00,
2013-04-23 19:27:00,51.4,37.9,29.74,North,-999,0.0,0.0,60,0.04,,,-99.99,FreeWX 2.04,2013-04-23 23:27:00,
2013-04-23 19:32:00,51.3,37.9,29.74,North,-999,0.0,4.5,60,0.04,,,-99.99,FreeWX 2.04,2013-04-23 23:32:00,
2013-04-23 19:37:00,51.3,38.3,29.74,North,-999,0.0,2.7,61,0.04,,,-99.99,FreeWX 2.04,2013-04-23 23:37:00,
2013-04-23 19:42:00,51.3,38.3,29.74,North,-999,0.0,4.5,61,0.08,,,-99.99,FreeWX 2.04,2013-04-23 23:42:00,
2013-04-23 19:47:00,51.3,38.3,29.74,North,-999,0.0,3.1,61,0.08,,,-99.99,FreeWX 2.04,2013-04-23 23:47:00,
2013-04-23 19:52:00,51.3,38.7,29.74,North,-999,0.0,6.9,62,0.08,,,-99.99,FreeWX 2.04,2013-04-23 23:52:00,
2013-04-23 19:57:00,51.3,39.0,29.74,North,-999,0.0,4.5,63,0.12,,,-99.99,FreeWX 2.04,2013-04-23 23:57:00,
2013-04-23 20:02:00,51.3,39.6,29.74,North,-999,0.0,0.0,64,0.12,,,-99.99,FreeWX 2.04,2013-04-24 00:02:00,
2013-04-23 20:07:00,51.3,39.6,29.74,North,-999,0.0,3.6,64,0.16,,,-99.99,FreeWX 2.04,2013-04-24 00:07:00,
2013-04-23 20:12:00,51.3,39.6,29.74,North,-999,0.0,2.7,64,0.16,,,-99.99,FreeWX 2.04,2013-04-24 00:12:00,
2013-04-23 20:17:00,51.1,39.4,29.74,North,-999,0.0,3.1,64,0.12,,,-99.99,FreeWX 2.04,2013-04-24 00:17:00,
2013-04-23 20:22:00,51.1,39.7,29.74,North,-999,0.0,0.0,65,0.12,,,-99.99,FreeWX 2.04,2013-04-24 00:22:00,
2013-04-23 20:27:00,51.1,39.7,29.74,North,-999,0.0,0.0,65,0.12,,,-99.99,FreeWX 2.04,2013-04-24 00:27:00,
2013-04-23 20:32:00,51.1,39.7,29.74,North,-999,0.0,0.0,65,0.12,,,-99.99,FreeWX 2.04,2013-04-24 00:32:00,
2013-04-23 20:37:00,50.9,39.6,29.71,North,-999,0.0,0.0,65,0.12,,,-99.99,FreeWX 2.04,2013-04-24 00:37:00,
2013-04-23 20:42:00,50.9,39.6,29.71,North,-999,0.0,0.0,65,0.12,,,-99.99,FreeWX 2.04,2013-04-24 00:42:00,
2013-04-23 20:47:00,50.9,39.6,29.71,North,-999,0.0,0.0,65,0.12,,,-99.99,FreeWX 2.04,2013-04-24 00:47:00,
2013-04-23 20:52:00,50.7,39.4,29.71,North,-999,0.0,0.0,65,0.12,,,-99.99,FreeWX 2.04,2013-04-24 00:52:00,
2013-04-23 20:57:00,50.5,39.2,29.71,North,-999,0.0,0.0,65,0.08,,,-99.99,FreeWX 2.04,2013-04-24 00:57:00,
2013-04-23 21:02:00,50.5,39.2,29.71,North,-999,0.0,0.0,65,0.08,,,-99.99,FreeWX 2.04,2013-04-24 01:02:00,
2013-04-23 21:07:00,49.8,37.8,29.71,North,-999,0.0,3.1,63,0.04,,,-99.99,FreeWX 2.04,2013-04-24 01:07:00,
2013-04-23 21:12:00,48.6,36.1,29.71,North,-999,0.0,0.0,62,0.04,,,-99.99,FreeWX 2.04,2013-04-24 01:12:00,
2013-04-23 21:17:00,48.0,36.0,29.71,North,-999,0.0,0.0,63,0.04,,,-99.99,FreeWX 2.04,2013-04-24 01:17:00,
2013-04-23 21:22:00,47.7,36.1,29.71,North,-999,0.0,4.0,64,0.04,,,-99.99,FreeWX 2.04,2013-04-24 01:22:00,
2013-04-23 21:27:00,47.7,36.5,29.71,North,-999,0.0,4.5,65,0.04,,,-99.99,FreeWX 2.04,2013-04-24 01:27:00,
2013-04-23 21:32:00,46.0,33.4,29.71,NE,51,2.0,9.2,61,0.08,,,-99.99,FreeWX 2.04,2013-04-24 01:32:00,
2013-04-23 21:37:00,43.7,30.4,29.74,NNE,28,3.0,7.4,59,0.08,,,-99.99,FreeWX 2.04,2013-04-24 01:37:00,
2013-04-23 21:42:00,43.0,31.6,29.74,NNW,335,2.0,5.4,64,0.08,,,-99.99,FreeWX 2.04,2013-04-24 01:42:00,
2013-04-23 21:47:00,43.3,33.1,29.74,NW,315,1.0,4.5,67,0.08,,,-99.99,FreeWX 2.04,2013-04-24 01:47:00,
2013-04-23 21:52:00,43.9,34.3,29.76,North,-999,0.0,2.7,69,0.08,,,-99.99,FreeWX 2.04,2013-04-24 01:52:00,
2013-04-23 21:57:00,44.1,34.9,29.76,North,-999,0.0,3.6,70,0.08,,,-99.99,FreeWX 2.04,2013-04-24 01:57:00,
2013-04-23 22:02:00,44.1,34.9,29.76,North,-999,0.0,4.9,70,0.12,,,-99.99,FreeWX 2.04,2013-04-24 02:02:00,
2013-04-23 22:07:00,43.7,34.5,29.76,North,-999,0.0,3.6,70,0.12,,,-99.99,FreeWX 2.04,2013-04-24 02:07:00,
2013-04-23 22:12:00,43.5,34.7,29.76,NNE,24,1.0,8.7,71,0.12,,,-99.99,FreeWX 2.04,2013-04-24 02:12:00,